Year,Month,Day,Hour,Minute,Value (Times are PST for temperature in C)
2008,07,13,00,00,16.10
2008,07,13,00,01,16.00
2008,07,13,00,02,15.80
2008,07,13,00,03,15.70
2008,07,13,00,04,15.60
2008,07,13,00,05,15.50
2008,07,13,00,06,15.40
2008,07,13,00,07,15.40
2008,07,13,00,08,15.30
2008,07,13,00,09,15.30
2008,07,13,00,10,15.30
2008,07,13,00,11,15.20
2008,07,13,00,12,15.20
2008,07,13,00,13,15.20
2008,07,13,00,14,15.20
2008,07,13,00,15,15.10
2008,07,13,00,16,15.10
2008,07,13,00,17,15.10
2008,07,13,00,18,15.00
2008,07,13,00,19,15.00
2008,07,13,00,20,15.00
2008,07,13,00,21,15.00
2008,07,13,00,22,15.00
2008,07,13,00,23,15.10
2008,07,13,00,24,15.10
2008,07,13,00,25,15.20
2008,07,13,00,26,15.20
2008,07,13,00,27,15.30
2008,07,13,00,28,15.30
2008,07,13,00,29,15.40
2008,07,13,00,30,15.50
2008,07,13,00,31,15.50
2008,07,13,00,32,15.50
2008,07,13,00,33,15.60
2008,07,13,00,34,15.60
2008,07,13,00,35,15.70
2008,07,13,00,36,15.70
2008,07,13,00,37,15.80
2008,07,13,00,38,15.80
2008,07,13,00,39,15.90
2008,07,13,00,40,16.00
2008,07,13,00,41,16.10
2008,07,13,00,42,16.10
2008,07,13,00,43,16.10
2008,07,13,00,44,16.20
2008,07,13,00,45,16.20
2008,07,13,00,46,16.30
2008,07,13,00,47,16.30
2008,07,13,00,48,16.30
2008,07,13,00,49,16.30
2008,07,13,00,50,16.30
2008,07,13,00,51,16.30
2008,07,13,00,52,16.30
2008,07,13,00,53,16.20
2008,07,13,00,54,16.20
2008,07,13,00,55,16.10
2008,07,13,00,56,16.10
2008,07,13,00,57,16.00
2008,07,13,00,58,15.90
2008,07,13,00,59,15.80
2008,07,13,01,00,15.80
2008,07,13,01,01,15.70
2008,07,13,01,02,15.60
2008,07,13,01,03,15.60
2008,07,13,01,04,15.60
2008,07,13,01,05,15.50
2008,07,13,01,06,15.50
2008,07,13,01,07,15.50
2008,07,13,01,08,15.40
2008,07,13,01,09,15.40
2008,07,13,01,10,15.40
2008,07,13,01,11,15.40
2008,07,13,01,12,15.40
2008,07,13,01,13,15.40
2008,07,13,01,14,15.40
2008,07,13,01,15,15.40
2008,07,13,01,16,15.40
2008,07,13,01,17,15.40
2008,07,13,01,18,15.40
2008,07,13,01,19,15.50
2008,07,13,01,20,15.50
2008,07,13,01,21,15.50
2008,07,13,01,22,15.50
2008,07,13,01,23,15.50
2008,07,13,01,24,15.50
2008,07,13,01,25,15.50
2008,07,13,01,26,15.50
2008,07,13,01,27,15.50
2008,07,13,01,28,15.50
2008,07,13,01,29,15.50
2008,07,13,01,30,15.60
2008,07,13,01,31,15.60
2008,07,13,01,32,15.60
2008,07,13,01,33,15.60
2008,07,13,01,34,15.60
2008,07,13,01,35,15.60
2008,07,13,01,36,15.60
2008,07,13,01,37,15.50
2008,07,13,01,38,15.50
2008,07,13,01,39,15.50
2008,07,13,01,40,15.50
2008,07,13,01,41,15.50
2008,07,13,01,42,15.50
2008,07,13,01,43,15.50
2008,07,13,01,44,15.50
2008,07,13,01,45,15.50
2008,07,13,01,46,15.40
2008,07,13,01,47,15.40
2008,07,13,01,48,15.40
2008,07,13,01,49,15.40
2008,07,13,01,50,15.40
2008,07,13,01,51,15.40
2008,07,13,01,52,15.40
2008,07,13,01,53,15.40
2008,07,13,01,54,15.30
2008,07,13,01,55,15.30
2008,07,13,01,56,15.30
2008,07,13,01,57,15.30
2008,07,13,01,58,15.30
2008,07,13,01,59,15.30
2008,07,13,02,00,15.30
2008,07,13,02,01,15.30
2008,07,13,02,02,15.20
2008,07,13,02,03,15.20
2008,07,13,02,04,15.20
2008,07,13,02,05,15.20
2008,07,13,02,06,15.20
2008,07,13,02,07,15.20
2008,07,13,02,08,15.20
2008,07,13,02,09,15.10
2008,07,13,02,10,15.10
2008,07,13,02,11,15.10
2008,07,13,02,12,15.10
2008,07,13,02,13,15.10
2008,07,13,02,14,15.10
2008,07,13,02,15,15.10
2008,07,13,02,16,15.10
2008,07,13,02,17,15.10
2008,07,13,02,18,15.10
2008,07,13,02,19,15.10
2008,07,13,02,20,15.00
2008,07,13,02,21,15.00
2008,07,13,02,22,15.00
2008,07,13,02,23,15.00
2008,07,13,02,24,15.00
2008,07,13,02,25,15.00
2008,07,13,02,26,15.00
2008,07,13,02,27,15.00
2008,07,13,02,28,15.00
2008,07,13,02,29,15.00
2008,07,13,02,30,15.00
2008,07,13,02,31,15.00
2008,07,13,02,32,15.00
2008,07,13,02,33,15.00
2008,07,13,02,34,15.10
2008,07,13,02,35,15.10
2008,07,13,02,36,15.10
2008,07,13,02,37,15.10
2008,07,13,02,38,15.20
2008,07,13,02,39,15.20
2008,07,13,02,40,15.30
2008,07,13,02,41,15.30
2008,07,13,02,42,15.30
2008,07,13,02,43,15.30
2008,07,13,02,44,15.30
2008,07,13,02,45,15.30
2008,07,13,02,46,15.30
2008,07,13,02,47,15.30
2008,07,13,02,48,15.30
2008,07,13,02,49,15.30
2008,07,13,02,50,15.30
2008,07,13,02,51,15.20
2008,07,13,02,52,15.20
2008,07,13,02,53,15.10
2008,07,13,02,54,15.10
2008,07,13,02,55,15.10
2008,07,13,02,56,15.10
2008,07,13,02,57,15.00
2008,07,13,02,58,15.00
2008,07,13,02,59,15.00
2008,07,13,03,00,15.00
2008,07,13,03,01,15.00
2008,07,13,03,02,14.90
2008,07,13,03,03,14.90
2008,07,13,03,04,14.90
2008,07,13,03,05,14.80
2008,07,13,03,06,14.80
2008,07,13,03,07,14.80
2008,07,13,03,08,14.80
2008,07,13,03,09,14.80
2008,07,13,03,10,14.80
2008,07,13,03,11,14.80
2008,07,13,03,12,14.70
2008,07,13,03,13,14.70
2008,07,13,03,14,14.70
2008,07,13,03,15,14.70
2008,07,13,03,16,14.70
2008,07,13,03,17,14.70
2008,07,13,03,18,14.70
2008,07,13,03,19,14.80
2008,07,13,03,20,14.80
2008,07,13,03,21,14.80
2008,07,13,03,22,14.80
2008,07,13,03,23,14.80
2008,07,13,03,24,14.80
2008,07,13,03,25,14.80
2008,07,13,03,26,14.80
2008,07,13,03,27,14.80
2008,07,13,03,28,14.80
2008,07,13,03,29,14.80
2008,07,13,03,30,14.80
2008,07,13,03,31,14.80
2008,07,13,03,32,14.80
2008,07,13,03,33,14.80
2008,07,13,03,34,14.80
2008,07,13,03,35,14.80
2008,07,13,03,36,14.80
2008,07,13,03,37,14.80
2008,07,13,03,38,14.80
2008,07,13,03,39,14.80
2008,07,13,03,40,14.80
2008,07,13,03,41,14.80
2008,07,13,03,42,14.80
2008,07,13,03,43,14.80
2008,07,13,03,44,14.70
2008,07,13,03,45,14.70
2008,07,13,03,46,14.70
2008,07,13,03,47,14.70
2008,07,13,03,48,14.70
2008,07,13,03,49,14.60
2008,07,13,03,50,14.60
2008,07,13,03,51,14.60
2008,07,13,03,52,14.60
2008,07,13,03,53,14.60
2008,07,13,03,54,14.60
2008,07,13,03,55,14.60
2008,07,13,03,56,14.60
2008,07,13,03,57,14.50
2008,07,13,03,58,14.50
2008,07,13,03,59,14.50
2008,07,13,04,00,14.50
2008,07,13,04,01,14.50
2008,07,13,04,02,14.40
2008,07,13,04,03,14.40
2008,07,13,04,04,14.40
2008,07,13,04,05,14.40
2008,07,13,04,06,14.40
2008,07,13,04,07,14.40
2008,07,13,04,08,14.40
2008,07,13,04,09,14.40
2008,07,13,04,10,14.40
2008,07,13,04,11,14.40
2008,07,13,04,12,14.40
2008,07,13,04,13,14.40
2008,07,13,04,14,14.40
2008,07,13,04,15,14.40
2008,07,13,04,16,14.40
2008,07,13,04,17,14.40
2008,07,13,04,18,14.40
2008,07,13,04,19,14.40
2008,07,13,04,20,14.40
2008,07,13,04,21,14.40
2008,07,13,04,22,14.40
2008,07,13,04,23,14.40
2008,07,13,04,24,14.40
2008,07,13,04,25,14.40
2008,07,13,04,26,14.40
2008,07,13,04,27,14.40
2008,07,13,04,28,14.40
2008,07,13,04,29,14.40
2008,07,13,04,30,14.40
2008,07,13,04,31,14.40
2008,07,13,04,32,14.40
2008,07,13,04,33,14.40
2008,07,13,04,34,14.40
2008,07,13,04,35,14.40
2008,07,13,04,36,14.40
2008,07,13,04,37,14.30
2008,07,13,04,38,14.30
2008,07,13,04,39,14.30
2008,07,13,04,40,14.30
2008,07,13,04,41,14.30
2008,07,13,04,42,14.30
2008,07,13,04,43,14.30
2008,07,13,04,44,14.30
2008,07,13,04,45,14.30
2008,07,13,04,46,14.40
2008,07,13,04,47,14.40
2008,07,13,04,48,14.40
2008,07,13,04,49,14.40
2008,07,13,04,50,14.50
2008,07,13,04,51,14.50
2008,07,13,04,52,14.50
2008,07,13,04,53,14.50
2008,07,13,04,54,14.50
2008,07,13,04,55,14.60
2008,07,13,04,56,14.60
2008,07,13,04,57,14.60
2008,07,13,04,58,14.60
2008,07,13,04,59,14.60
2008,07,13,05,00,14.60
2008,07,13,05,01,14.60
2008,07,13,05,02,14.60
2008,07,13,05,03,14.60
2008,07,13,05,04,14.60
2008,07,13,05,05,14.60
2008,07,13,05,06,14.60
2008,07,13,05,07,14.60
2008,07,13,05,08,14.60
2008,07,13,05,09,14.60
2008,07,13,05,10,14.50
2008,07,13,05,11,14.50
2008,07,13,05,12,14.50
2008,07,13,05,13,14.50
2008,07,13,05,14,14.40
2008,07,13,05,15,14.40
2008,07,13,05,16,14.40
2008,07,13,05,17,14.40
2008,07,13,05,18,14.40
2008,07,13,05,19,14.30
2008,07,13,05,20,14.30
2008,07,13,05,21,14.30
2008,07,13,05,22,14.20
2008,07,13,05,23,14.20
2008,07,13,05,24,14.20
2008,07,13,05,25,14.20
2008,07,13,05,26,14.20
2008,07,13,05,27,14.20
2008,07,13,05,28,14.20
2008,07,13,05,29,14.20
2008,07,13,05,30,14.20
2008,07,13,05,31,14.20
2008,07,13,05,32,14.20
2008,07,13,05,33,14.20
2008,07,13,05,34,14.20
2008,07,13,05,35,14.20
2008,07,13,05,36,14.20
2008,07,13,05,37,14.20
2008,07,13,05,38,14.20
2008,07,13,05,39,14.20
2008,07,13,05,40,14.20
2008,07,13,05,41,14.10
2008,07,13,05,42,14.10
2008,07,13,05,43,14.10
2008,07,13,05,44,14.10
2008,07,13,05,45,14.10
2008,07,13,05,46,14.10
2008,07,13,05,47,14.10
2008,07,13,05,48,14.00
2008,07,13,05,49,14.00
2008,07,13,05,50,14.00
2008,07,13,05,51,14.00
2008,07,13,05,52,14.00
2008,07,13,05,53,14.00
2008,07,13,05,54,14.00
2008,07,13,05,55,14.00
2008,07,13,05,56,14.00
2008,07,13,05,57,14.00
2008,07,13,05,58,14.00
2008,07,13,05,59,14.00
2008,07,13,06,00,14.00
2008,07,13,06,01,14.00
2008,07,13,06,02,14.00
2008,07,13,06,03,14.00
2008,07,13,06,04,14.00
2008,07,13,06,05,14.10
2008,07,13,06,06,14.10
2008,07,13,06,07,14.10
2008,07,13,06,08,14.10
2008,07,13,06,09,14.10
2008,07,13,06,10,14.10
2008,07,13,06,11,14.10
2008,07,13,06,12,14.10
2008,07,13,06,13,14.10
2008,07,13,06,14,14.10
2008,07,13,06,15,14.10
2008,07,13,06,16,14.10
2008,07,13,06,17,14.10
2008,07,13,06,18,14.10
2008,07,13,06,19,14.10
2008,07,13,06,20,14.10
2008,07,13,06,21,14.10
2008,07,13,06,22,14.10
2008,07,13,06,23,14.10
2008,07,13,06,24,14.10
2008,07,13,06,25,14.20
2008,07,13,06,26,14.20
2008,07,13,06,27,14.20
2008,07,13,06,28,14.20
2008,07,13,06,29,14.20
2008,07,13,06,30,14.20
2008,07,13,06,31,14.20
2008,07,13,06,32,14.20
2008,07,13,06,33,14.30
2008,07,13,06,34,14.30
2008,07,13,06,35,14.40
2008,07,13,06,36,14.40
2008,07,13,06,37,14.40
2008,07,13,06,38,14.40
2008,07,13,06,39,14.40
2008,07,13,06,40,14.50
2008,07,13,06,41,14.50
2008,07,13,06,42,14.50
2008,07,13,06,43,14.60
2008,07,13,06,44,14.60
2008,07,13,06,45,14.60
2008,07,13,06,46,14.60
2008,07,13,06,47,14.70
2008,07,13,06,48,14.70
2008,07,13,06,49,14.70
2008,07,13,06,50,14.80
2008,07,13,06,51,14.80
2008,07,13,06,52,14.80
2008,07,13,06,53,14.90
2008,07,13,06,54,14.90
2008,07,13,06,55,15.00
2008,07,13,06,56,15.00
2008,07,13,06,57,15.10
2008,07,13,06,58,15.10
2008,07,13,06,59,15.20
2008,07,13,07,00,15.20
2008,07,13,07,01,15.30
2008,07,13,07,02,15.30
2008,07,13,07,03,15.30
2008,07,13,07,04,15.40
2008,07,13,07,05,15.40
2008,07,13,07,06,15.50
2008,07,13,07,07,15.50
2008,07,13,07,08,15.60
2008,07,13,07,09,15.60
2008,07,13,07,10,15.60
2008,07,13,07,11,15.70
2008,07,13,07,12,15.70
2008,07,13,07,13,15.80
2008,07,13,07,14,15.80
2008,07,13,07,15,15.80
2008,07,13,07,16,15.80
2008,07,13,07,17,15.80
2008,07,13,07,18,15.80
2008,07,13,07,19,15.80
2008,07,13,07,20,15.90
2008,07,13,07,21,15.90
2008,07,13,07,22,15.90
2008,07,13,07,23,15.90
2008,07,13,07,24,16.00
2008,07,13,07,25,16.10
2008,07,13,07,26,16.10
2008,07,13,07,27,16.10
2008,07,13,07,28,16.10
2008,07,13,07,29,16.10
2008,07,13,07,30,16.10
2008,07,13,07,31,16.10
2008,07,13,07,32,16.10
2008,07,13,07,33,16.10
2008,07,13,07,34,16.10
2008,07,13,07,35,16.10
2008,07,13,07,36,16.10
2008,07,13,07,37,16.10
2008,07,13,07,38,16.10
2008,07,13,07,39,16.10
2008,07,13,07,40,16.10
2008,07,13,07,41,16.10
2008,07,13,07,42,16.20
2008,07,13,07,43,16.20
2008,07,13,07,44,16.20
2008,07,13,07,45,16.30
2008,07,13,07,46,16.30
2008,07,13,07,47,16.30
2008,07,13,07,48,16.30
2008,07,13,07,49,16.30
2008,07,13,07,50,16.30
2008,07,13,07,51,16.30
2008,07,13,07,52,16.30
2008,07,13,07,53,16.40
2008,07,13,07,54,16.40
2008,07,13,07,55,16.40
2008,07,13,07,56,16.40
2008,07,13,07,57,16.40
2008,07,13,07,58,16.50
2008,07,13,07,59,16.60
2008,07,13,08,00,16.70
2008,07,13,08,01,16.70
2008,07,13,08,02,16.70
2008,07,13,08,03,16.80
2008,07,13,08,04,16.80
2008,07,13,08,05,16.90
2008,07,13,08,06,16.90
2008,07,13,08,07,17.00
2008,07,13,08,08,17.00
2008,07,13,08,09,17.10
2008,07,13,08,10,17.20
2008,07,13,08,11,17.30
2008,07,13,08,12,17.30
2008,07,13,08,13,17.30
2008,07,13,08,14,17.40
2008,07,13,08,15,17.50
2008,07,13,08,16,17.50
2008,07,13,08,17,17.60
2008,07,13,08,18,17.60
2008,07,13,08,19,17.70
2008,07,13,08,20,17.80
2008,07,13,08,21,17.90
2008,07,13,08,22,17.90
2008,07,13,08,23,18.00
2008,07,13,08,24,18.20
2008,07,13,08,25,18.20
2008,07,13,08,26,18.30
2008,07,13,08,27,18.40
2008,07,13,08,28,18.50
2008,07,13,08,29,18.60
2008,07,13,08,30,18.70
2008,07,13,08,31,18.80
2008,07,13,08,32,18.80
2008,07,13,08,33,18.80
2008,07,13,08,34,18.80
2008,07,13,08,35,18.70
2008,07,13,08,36,18.70
2008,07,13,08,37,18.70
2008,07,13,08,38,18.70
2008,07,13,08,39,18.70
2008,07,13,08,40,18.70
2008,07,13,08,41,18.70
2008,07,13,08,42,18.70
2008,07,13,08,43,18.70
2008,07,13,08,44,18.70
2008,07,13,08,45,18.80
2008,07,13,08,46,18.80
2008,07,13,08,47,18.80
2008,07,13,08,48,18.90
2008,07,13,08,49,18.90
2008,07,13,08,50,18.80
2008,07,13,08,51,18.80
2008,07,13,08,52,18.80
2008,07,13,08,53,18.80
2008,07,13,08,54,18.80
2008,07,13,08,55,18.70
2008,07,13,08,56,18.70
2008,07,13,08,57,18.50
2008,07,13,08,58,18.50
2008,07,13,08,59,18.40
2008,07,13,09,00,18.40
2008,07,13,09,01,18.50
2008,07,13,09,02,18.40
2008,07,13,09,03,18.20
2008,07,13,09,04,17.90
2008,07,13,09,05,17.70
2008,07,13,09,06,17.50
2008,07,13,09,07,17.30
2008,07,13,09,08,17.10
2008,07,13,09,09,16.90
2008,07,13,09,10,16.60
2008,07,13,09,11,16.30
2008,07,13,09,12,16.10
2008,07,13,09,13,16.10
2008,07,13,09,14,16.10
2008,07,13,09,15,16.10
2008,07,13,09,16,15.90
2008,07,13,09,17,15.70
2008,07,13,09,18,15.60
2008,07,13,09,19,15.50
2008,07,13,09,20,15.60
2008,07,13,09,21,15.60
2008,07,13,09,22,15.50
2008,07,13,09,23,15.50
2008,07,13,09,24,15.30
2008,07,13,09,25,15.30
2008,07,13,09,26,15.20
2008,07,13,09,27,15.20
2008,07,13,09,28,15.20
2008,07,13,09,29,15.20
2008,07,13,09,30,15.10
2008,07,13,09,31,14.90
2008,07,13,09,32,14.80
2008,07,13,09,33,14.80
2008,07,13,09,34,14.80
2008,07,13,09,35,14.90
2008,07,13,09,36,14.90
2008,07,13,09,37,14.90
2008,07,13,09,38,14.90
2008,07,13,09,39,14.90
2008,07,13,09,40,15.00
2008,07,13,09,41,15.10
2008,07,13,09,42,15.20
2008,07,13,09,43,15.30
2008,07,13,09,44,15.40
2008,07,13,09,45,15.50
2008,07,13,09,46,15.60
2008,07,13,09,47,15.70
2008,07,13,09,48,15.70
2008,07,13,09,49,15.60
2008,07,13,09,50,15.60
2008,07,13,09,51,15.60
2008,07,13,09,52,15.60
2008,07,13,09,53,15.60
2008,07,13,09,54,15.60
2008,07,13,09,55,15.70
2008,07,13,09,56,15.70
2008,07,13,09,57,15.70
2008,07,13,09,58,15.70
2008,07,13,09,59,15.80
2008,07,13,10,00,15.90
2008,07,13,10,01,15.90
2008,07,13,10,02,15.90
2008,07,13,10,03,15.90
2008,07,13,10,04,15.80
2008,07,13,10,05,15.80
2008,07,13,10,06,15.80
2008,07,13,10,07,15.80
2008,07,13,10,08,15.80
2008,07,13,10,09,15.70
2008,07,13,10,10,15.60
2008,07,13,10,11,15.40
2008,07,13,10,12,15.30
2008,07,13,10,13,15.30
2008,07,13,10,14,15.20
2008,07,13,10,15,15.20
2008,07,13,10,16,15.30
2008,07,13,10,17,15.40
2008,07,13,10,18,15.50
2008,07,13,10,19,15.50
2008,07,13,10,20,15.50
2008,07,13,10,21,15.60
2008,07,13,10,22,15.80
2008,07,13,10,23,15.80
2008,07,13,10,24,15.80
2008,07,13,10,25,15.80
2008,07,13,10,26,15.70
2008,07,13,10,27,15.70
2008,07,13,10,28,15.70
2008,07,13,10,29,15.70
2008,07,13,10,30,15.80
2008,07,13,10,31,15.80
2008,07,13,10,32,15.80
2008,07,13,10,33,15.90
2008,07,13,10,34,15.90
2008,07,13,10,35,16.00
2008,07,13,10,36,16.10
2008,07,13,10,37,16.20
2008,07,13,10,38,16.20
2008,07,13,10,39,16.10
2008,07,13,10,40,16.10
2008,07,13,10,41,16.10
2008,07,13,10,42,16.00
2008,07,13,10,43,15.90
2008,07,13,10,44,15.90
2008,07,13,10,45,15.80
2008,07,13,10,46,15.80
2008,07,13,10,47,15.90
2008,07,13,10,48,15.90
2008,07,13,10,49,15.80
2008,07,13,10,50,15.70
2008,07,13,10,51,15.70
2008,07,13,10,52,15.80
2008,07,13,10,53,16.00
2008,07,13,10,54,16.10
2008,07,13,10,55,16.10
2008,07,13,10,56,16.10
2008,07,13,10,57,16.10
2008,07,13,10,58,16.10
2008,07,13,10,59,15.90
2008,07,13,11,00,15.80
2008,07,13,11,01,15.80
2008,07,13,11,02,15.80
2008,07,13,11,03,15.70
2008,07,13,11,04,15.70
2008,07,13,11,05,15.60
2008,07,13,11,06,15.60
2008,07,13,11,07,15.50
2008,07,13,11,08,15.50
2008,07,13,11,09,15.40
2008,07,13,11,10,15.40
2008,07,13,11,11,15.30
2008,07,13,11,12,15.30
2008,07,13,11,13,15.30
2008,07,13,11,14,15.20
2008,07,13,11,15,15.20
2008,07,13,11,16,15.30
2008,07,13,11,17,15.30
2008,07,13,11,18,15.30
2008,07,13,11,19,15.30
2008,07,13,11,20,15.40
2008,07,13,11,21,15.40
2008,07,13,11,22,15.50
2008,07,13,11,23,15.60
2008,07,13,11,24,15.60
2008,07,13,11,25,15.80
2008,07,13,11,26,15.80
2008,07,13,11,27,15.80
2008,07,13,11,28,15.80
2008,07,13,11,29,15.80
2008,07,13,11,30,15.80
2008,07,13,11,31,15.80
2008,07,13,11,32,15.70
2008,07,13,11,33,15.60
2008,07,13,11,34,15.60
2008,07,13,11,35,15.70
2008,07,13,11,36,15.80
2008,07,13,11,37,15.80
2008,07,13,11,38,15.80
2008,07,13,11,39,15.80
2008,07,13,11,40,15.90
2008,07,13,11,41,15.90
2008,07,13,11,42,15.90
2008,07,13,11,43,15.90
2008,07,13,11,44,15.80
2008,07,13,11,45,15.80
2008,07,13,11,46,15.80
2008,07,13,11,47,15.90
2008,07,13,11,48,16.10
2008,07,13,11,49,16.10
2008,07,13,11,50,16.00
2008,07,13,11,51,16.10
2008,07,13,11,52,16.10
2008,07,13,11,53,15.90
2008,07,13,11,54,15.80
2008,07,13,11,55,15.70
2008,07,13,11,56,15.60
2008,07,13,11,57,15.60
2008,07,13,11,58,15.50
2008,07,13,11,59,15.50
2008,07,13,12,00,15.40
2008,07,13,12,01,15.40
2008,07,13,12,02,15.30
2008,07,13,12,03,15.40
2008,07,13,12,04,15.50
2008,07,13,12,05,15.70
2008,07,13,12,06,15.80
2008,07,13,12,07,15.80
2008,07,13,12,08,15.90
2008,07,13,12,09,15.90
2008,07,13,12,10,15.80
2008,07,13,12,11,15.80
2008,07,13,12,12,15.70
2008,07,13,12,13,15.70
2008,07,13,12,14,15.70
2008,07,13,12,15,15.80
2008,07,13,12,16,15.80
2008,07,13,12,17,15.70
2008,07,13,12,18,15.60
2008,07,13,12,19,15.50
2008,07,13,12,20,15.50
2008,07,13,12,21,15.50
2008,07,13,12,22,15.30
2008,07,13,12,23,15.10
2008,07,13,12,24,15.00
2008,07,13,12,25,14.90
2008,07,13,12,26,14.80
2008,07,13,12,27,14.80
2008,07,13,12,28,14.70
2008,07,13,12,29,14.70
2008,07,13,12,30,14.70
2008,07,13,12,31,14.80
2008,07,13,12,32,14.70
2008,07,13,12,33,14.60
2008,07,13,12,34,14.50
2008,07,13,12,35,14.50
2008,07,13,12,36,14.40
2008,07,13,12,37,14.40
2008,07,13,12,38,14.30
2008,07,13,12,39,14.20
2008,07,13,12,40,14.30
2008,07,13,12,41,14.30
2008,07,13,12,42,14.30
2008,07,13,12,43,14.20
2008,07,13,12,44,14.20
2008,07,13,12,45,14.10
2008,07,13,12,46,14.00
2008,07,13,12,47,14.00
2008,07,13,12,48,14.00
2008,07,13,12,49,13.90
2008,07,13,12,50,13.90
2008,07,13,12,51,13.90
2008,07,13,12,52,13.90
2008,07,13,12,53,14.00
2008,07,13,12,54,14.10
2008,07,13,12,55,14.10
2008,07,13,12,56,14.10
2008,07,13,12,57,14.10
2008,07,13,12,58,14.10
2008,07,13,12,59,14.10
2008,07,13,13,00,14.10
2008,07,13,13,01,14.10
2008,07,13,13,02,14.10
2008,07,13,13,03,14.10
2008,07,13,13,04,14.20
2008,07,13,13,05,14.20
2008,07,13,13,06,14.20
2008,07,13,13,07,14.20
2008,07,13,13,08,14.20
2008,07,13,13,09,14.20
2008,07,13,13,10,14.20
2008,07,13,13,11,14.40
2008,07,13,13,12,14.50
2008,07,13,13,13,14.60
2008,07,13,13,14,14.60
2008,07,13,13,15,14.70
2008,07,13,13,16,14.70
2008,07,13,13,17,14.80
2008,07,13,13,18,14.80
2008,07,13,13,19,14.90
2008,07,13,13,20,14.90
2008,07,13,13,21,15.00
2008,07,13,13,22,15.00
2008,07,13,13,23,15.20
2008,07,13,13,24,15.40
2008,07,13,13,25,15.50
2008,07,13,13,26,15.40
2008,07,13,13,27,15.30
2008,07,13,13,28,15.10
2008,07,13,13,29,15.00
2008,07,13,13,30,14.80
2008,07,13,13,31,14.80
2008,07,13,13,32,14.80
2008,07,13,13,33,14.80
2008,07,13,13,34,14.80
2008,07,13,13,35,14.80
2008,07,13,13,36,14.80
2008,07,13,13,37,14.80
2008,07,13,13,38,14.80
2008,07,13,13,39,14.70
2008,07,13,13,40,14.70
2008,07,13,13,41,14.80
2008,07,13,13,42,14.80
2008,07,13,13,43,14.80
2008,07,13,13,44,14.80
2008,07,13,13,45,14.70
2008,07,13,13,46,14.60
2008,07,13,13,47,14.60
2008,07,13,13,48,14.60
2008,07,13,13,49,14.50
2008,07,13,13,50,14.60
2008,07,13,13,51,14.60
2008,07,13,13,52,14.60
2008,07,13,13,53,14.50
2008,07,13,13,54,14.60
2008,07,13,13,55,14.60
2008,07,13,13,56,14.70
2008,07,13,13,57,14.90
2008,07,13,13,58,14.90
2008,07,13,13,59,15.00
2008,07,13,14,00,15.20
2008,07,13,14,01,15.40
2008,07,13,14,02,15.50
2008,07,13,14,03,15.60
2008,07,13,14,04,15.70
2008,07,13,14,05,15.70
2008,07,13,14,06,15.80
2008,07,13,14,07,15.70
2008,07,13,14,08,15.60
2008,07,13,14,09,15.40
2008,07,13,14,10,15.20
2008,07,13,14,11,15.00
2008,07,13,14,12,14.90
2008,07,13,14,13,14.90
2008,07,13,14,14,14.80
2008,07,13,14,15,14.70
2008,07,13,14,16,14.70
2008,07,13,14,17,14.60
2008,07,13,14,18,14.50
2008,07,13,14,19,14.30
2008,07,13,14,20,14.30
2008,07,13,14,21,14.20
2008,07,13,14,22,14.20
2008,07,13,14,23,14.20
2008,07,13,14,24,14.20
2008,07,13,14,25,14.20
2008,07,13,14,26,14.20
2008,07,13,14,27,14.20
2008,07,13,14,28,14.30
2008,07,13,14,29,14.30
2008,07,13,14,30,14.40
2008,07,13,14,31,14.60
2008,07,13,14,32,14.70
2008,07,13,14,33,14.80
2008,07,13,14,34,14.80
2008,07,13,14,35,14.80
2008,07,13,14,36,14.90
2008,07,13,14,37,14.70
2008,07,13,14,38,14.50
2008,07,13,14,39,14.30
2008,07,13,14,40,14.30
2008,07,13,14,41,14.20
2008,07,13,14,42,14.20
2008,07,13,14,43,14.10
2008,07,13,14,44,14.10
2008,07,13,14,45,14.10
2008,07,13,14,46,14.20
2008,07,13,14,47,14.20
2008,07,13,14,48,14.30
2008,07,13,14,49,14.40
2008,07,13,14,50,14.50
2008,07,13,14,51,14.60
2008,07,13,14,52,14.70
2008,07,13,14,53,14.60
2008,07,13,14,54,14.50
2008,07,13,14,55,14.40
2008,07,13,14,56,14.30
2008,07,13,14,57,14.20
2008,07,13,14,58,14.30
2008,07,13,14,59,14.30
2008,07,13,15,00,14.20
2008,07,13,15,01,14.20
2008,07,13,15,02,14.20
2008,07,13,15,03,14.20
2008,07,13,15,04,14.20
2008,07,13,15,05,14.20
2008,07,13,15,06,14.20
2008,07,13,15,07,14.20
2008,07,13,15,08,14.20
2008,07,13,15,09,14.30
2008,07,13,15,10,14.30
2008,07,13,15,11,14.30
2008,07,13,15,12,14.30
2008,07,13,15,13,14.30
2008,07,13,15,14,14.20
2008,07,13,15,15,14.20
2008,07,13,15,16,14.20
2008,07,13,15,17,14.10
2008,07,13,15,18,14.10
2008,07,13,15,19,14.00
2008,07,13,15,20,14.00
2008,07,13,15,21,13.90
2008,07,13,15,22,13.80
2008,07,13,15,23,13.80
2008,07,13,15,24,13.80
2008,07,13,15,25,13.80
2008,07,13,15,26,13.70
2008,07,13,15,27,13.70
2008,07,13,15,28,13.70
2008,07,13,15,29,13.70
2008,07,13,15,30,13.70
2008,07,13,15,31,13.70
2008,07,13,15,32,13.70
2008,07,13,15,33,13.70
2008,07,13,15,34,13.70
2008,07,13,15,35,13.70
2008,07,13,15,36,13.70
2008,07,13,15,37,13.70
2008,07,13,15,38,13.80
2008,07,13,15,39,13.80
2008,07,13,15,40,13.80
2008,07,13,15,41,13.80
2008,07,13,15,42,14.00
2008,07,13,15,43,14.00
2008,07,13,15,44,14.10
2008,07,13,15,45,14.20
2008,07,13,15,46,14.30
2008,07,13,15,47,14.30
2008,07,13,15,48,14.40
2008,07,13,15,49,14.40
2008,07,13,15,50,14.50
2008,07,13,15,51,14.60
2008,07,13,15,52,14.60
2008,07,13,15,53,14.70
2008,07,13,15,54,14.70
2008,07,13,15,55,14.80
2008,07,13,15,56,14.90
2008,07,13,15,57,15.00
2008,07,13,15,58,15.10
2008,07,13,15,59,15.30
2008,07,13,16,00,15.30
2008,07,13,16,01,15.30
2008,07,13,16,02,15.50
2008,07,13,16,03,15.60
2008,07,13,16,04,15.60
2008,07,13,16,05,15.70
2008,07,13,16,06,15.80
2008,07,13,16,07,16.00
2008,07,13,16,08,16.10
2008,07,13,16,09,16.20
2008,07,13,16,10,16.30
2008,07,13,16,11,16.40
2008,07,13,16,12,16.50
2008,07,13,16,13,16.60
2008,07,13,16,14,16.70
2008,07,13,16,15,16.80
2008,07,13,16,16,16.80
2008,07,13,16,17,16.90
2008,07,13,16,18,16.90
2008,07,13,16,19,16.90
2008,07,13,16,20,16.90
2008,07,13,16,21,16.80
2008,07,13,16,22,16.70
2008,07,13,16,23,16.80
2008,07,13,16,24,16.80
2008,07,13,16,25,16.80
2008,07,13,16,26,16.70
2008,07,13,16,27,16.70
2008,07,13,16,28,16.70
2008,07,13,16,29,16.60
2008,07,13,16,30,16.60
2008,07,13,16,31,16.60
2008,07,13,16,32,16.50
2008,07,13,16,33,16.60
2008,07,13,16,34,16.60
2008,07,13,16,35,16.60
2008,07,13,16,36,16.60
2008,07,13,16,37,16.40
2008,07,13,16,38,16.40
2008,07,13,16,39,16.30
2008,07,13,16,40,16.20
2008,07,13,16,41,16.10
2008,07,13,16,42,15.90
2008,07,13,16,43,15.70
2008,07,13,16,44,15.60
2008,07,13,16,45,15.50
2008,07,13,16,46,15.40
2008,07,13,16,47,15.30
2008,07,13,16,48,15.10
2008,07,13,16,49,14.90
2008,07,13,16,50,14.70
2008,07,13,16,51,14.60
2008,07,13,16,52,14.60
2008,07,13,16,53,14.50
2008,07,13,16,54,14.40
2008,07,13,16,55,14.40
2008,07,13,16,56,14.30
2008,07,13,16,57,14.20
2008,07,13,16,58,14.10
2008,07,13,16,59,14.00
2008,07,13,17,00,13.90
2008,07,13,17,01,13.90
2008,07,13,17,02,13.90
2008,07,13,17,03,13.90
2008,07,13,17,04,13.90
2008,07,13,17,05,14.00
2008,07,13,17,06,14.00
2008,07,13,17,07,14.10
2008,07,13,17,08,14.10
2008,07,13,17,09,14.10
2008,07,13,17,10,14.10
2008,07,13,17,11,14.10
2008,07,13,17,12,14.10
2008,07,13,17,13,14.10
2008,07,13,17,14,14.10
2008,07,13,17,15,14.10
2008,07,13,17,16,14.10
2008,07,13,17,17,14.10
2008,07,13,17,18,14.00
2008,07,13,17,19,14.10